Regional Weather Roundup
Issued by NWS

Home | Current Version | Previous Version | Graphics & Text | Print | Product List | Glossary Off
Versions: 1 2 3 4 5 6 7 8 9 10 11 12 13 14 15 16 17 18 19 20 21 22 23 24 25 26 27 28 29 30 31 32 33 34 35 36 37 38 39 40 41 42 43 44 45 46 47 48 49 50

000
ASUS43 KTOP 190259
RWRKS

WEATHER ROUNDUP FOR KANSAS
NATIONAL WEATHER SERVICE GOODLAND KS
1000 PM CDT FRI APR 18 2014

NOTE:  "FAIR" INDICATES FEW OR NO CLOUDS BELOW 12,000 FEET WITH NO
SIGNIFICANT WEATHER AND/OR OBSTRUCTIONS TO VISIBILITY.

KSZ001>006-013>018-027>032-041>047-190400-
NORTHWEST KANSAS

CITY           SKY/WX    TMP DP  RH WIND       PRES   REMARKS
GOODLAND       PTCLDY    59  43  55 S24       29.93R
HAYS           CLEAR     59  43  55 SE15      30.04R
HILL CITY      CLEAR     62  41  46 S12G18    30.00R
RUSSELL        CLEAR     60  42  51 S17       30.03S
$$

KSZ061>065-074>080-084>089-190400-
SOUTHWEST KANSAS

CITY           SKY/WX    TMP DP  RH WIND       PRES   REMARKS
DODGE CITY     CLEAR     58  43  57 S21       30.05R
ELKHART          N/A     60  42  51 SE9         N/A
GARDEN CITY    PTCLDY    58  41  53 S16       30.01R
GREAT BEND     CLEAR     59  41  51 SE16      30.06R
LIBERAL        PTCLDY    59  43  55 S18G24    30.04R
$$

KSZ066>073-081>083-090>101-190400-
SOUTHEAST KANSAS

CITY           SKY/WX    TMP DP  RH WIND       PRES   REMARKS
CHANUTE        CLEAR     56  41  57 SE6       30.16R
COFFEYVILLE    CLEAR     58  41  53 SE3       30.15R
HUTCHINSON     CLEAR     58  41  53 SE10      30.10R
NEWTON         CLEAR     52  36  54 SE8       30.15R
PARSONS        CLEAR     50  38  63 CALM      30.17R
WICHITA INTL   PTCLDY    59  41  51 SE10      30.11R
WICHITA JABRA  CLEAR     56  41  57 SE7       30.12R
WINFIELD       CLEAR     60  40  47 SE7       30.14R
$$

KSZ007>012-019>026-033>040-048>060-102>105-190400-
NORTHEAST KANSAS

CITY           SKY/WX    TMP DP  RH WIND       PRES   REMARKS
CONCORDIA      CLEAR     57  41  55 S9        30.08R
EMPORIA        CLEAR     55  40  56 SE8       30.14R
LAWRENCE       PTCLDY    54  42  64 SE3       30.16R
MANHATTAN      PTCLDY    59  41  51 SE8       30.12R HAZE
OLATHE IND     PTCLDY    57  42  57 SE8       30.17R
OLATHE EXE     PTCLDY    58  41  53 SE5       30.17R
SALINA         CLEAR     59  41  51 SE9       30.10R
TOPEKA BILLARD CLEAR     55  42  61 SE8       30.15R
TOPEKA FORBES  CLEAR     55  41  59 SE6       30.15R
$$



USA.gov is the U.S. government's official web portal to all federal, state and local government web resources and services.